K5RG-3 Weather Reports


time (UTC)temp
F
wind
direction
speed
knots
gust
knots
rain 1hr
in
rain 24hr
in
rain mn
in
humidity
%
barometer
mb
20240222111510 66 153 0.0 2.6 0.00 0.00 0.00 81 1011.1
20240222110011 66 211 0.0 4.3 0.00 0.00 0.00 81 1011.3
20240222104510 66 190 0.0 7.8 0.00 0.00 0.00 82 1011.1
20240222103010 66 206 0.0 8.7 0.00 0.00 0.00 82 1010.8
20240222101507 66 166 0.0 7.8 0.00 0.00 0.00 82 1011.0
20240222100009 66 195 0.0 7.0 0.00 0.00 0.00 83 1011.4
20240222094505 66 177 0.9 7.0 0.00 0.00 0.00 82 1011.3
20240222093001 66 184 0.0 2.6 0.00 0.00 0.00 82 1011.7
20240222091601 66 212 0.0 4.3 0.00 0.00 0.00 82 1012.0
20240222090057 66 162 0.0 12.2 0.00 0.00 0.00 81 1012.2
20240222084556 66 173 0.0 5.2 0.00 0.00 0.00 81 1012.5
20240222083059 66 166 0.0 5.2 0.00 0.00 0.00 81 1012.4
20240222081553 66 175 0.0 7.8 0.00 0.00 0.00 80 1012.5
20240222080100 66 224 0.0 7.8 0.00 0.00 0.00 80 1012.7
20240222074549 66 208 0.9 7.0 0.00 0.00 0.00 80 1012.9
20240222073048 66 169 0.0 4.3 0.00 0.00 0.00 80 1013.0
20240222071544 66 195 0.0 10.4 0.00 0.00 0.00 79 1013.3
20240222070042 67 181 0.9 9.6 0.00 0.00 0.00 78 1013.4
20240222064541 67 174 0.0 11.3 0.00 0.00 0.00 78 1013.6
20240222063051 67 200 2.6 14.8 0.00 0.00 0.00 77 1013.8
20240222061537 67 162 1.7 14.8 0.00 0.00 0.00 77 1013.7
20240222060037 68 136 0.0 15.6 0.00 0.00 0.00 76 1014.0
20240222054534 67 155 0.0 11.3 0.00 0.00 0.00 76 1013.8
20240222053033 67 190 6.1 18.2 0.00 0.00 0.00 76 1013.7
20240222051533 67 180 1.7 16.5 0.00 0.00 0.00 77 1013.5
20240222050045 66 125 3.5 19.1 0.00 0.00 0.00 78 1013.3
20240222044531 66 162 3.5 16.5 0.00 0.00 0.00 78 1013.3
20240222043029 66 160 2.6 15.6 0.00 0.00 0.00 79 1013.7
20240222041528 66 153 0.9 17.4 0.00 0.00 0.00 80 1013.5
20240222040028 67 154 1.7 13.9 0.00 0.00 0.00 80 1014.3
20240222034527 67 143 1.7 13.0 0.00 0.00 0.00 80 1014.6
20240222033027 67 168 2.6 15.6 0.00 0.00 0.00 81 1014.7
20240222031522 67 153 0.0 7.0 0.00 0.00 0.00 80 1015.1
20240222030022 66 150 0.9 9.6 0.00 0.00 0.00 80 1015.2
20240222024517 66 137 1.7 11.3 0.00 0.00 0.00 81 1015.2
20240222023016 66 120 2.6 11.3 0.00 0.00 0.00 81 1015.3
20240222021514 66 155 0.0 7.0 0.00 0.00 0.00 81 1015.8
20240222020012 66 177 0.0 11.3 0.00 0.00 0.00 81 1015.9
20240222014510 67 131 0.0 3.5 0.00 0.00 0.00 80 1016.2
20240222013009 67 190 0.0 1.7 0.00 0.00 0.00 80 1016.3
20240222011508 67 140 0.0 2.6 0.00 0.00 0.00 80 1016.2
20240222010010 67 156 0.0 2.6 0.00 0.00 0.00 79 1016.3
20240222004506 67 164 0.0 5.2 0.00 0.00 0.00 78 1016.2
20240222003005 68 184 0.0 10.4 0.00 0.00 0.00 77 1016.4
20240222001512 69 164 1.7 9.6 0.00 0.00 0.00 76 1016.4
20240222000007 69 133 0.0 13.9 0.00 0.00 0.00 75 1016.3
20240221234515 70 183 2.6 14.8 0.00 0.00 0.00 74 1016.2
20240221233004 70 190 2.6 15.6 0.00 0.00 0.00 73 1016.2
20240221231503 71 164 3.5 14.8 0.00 0.00 0.00 71 1016.1
20240221230002 71 124 1.7 16.5 0.00 0.00 0.00 70 1016.3
20240221224506 72 149 6.1 17.4 0.00 0.00 0.00 68 1016.2
20240221223002 72 142 3.5 18.2 0.00 0.00 0.00 68 1016.2
20240221221609 73 142 5.2 14.8 0.00 0.00 0.00 67 1016.2
20240221220105 73 170 7.0 17.4 0.00 0.00 0.00 68 1016.4
20240221214558 74 154 4.3 16.5 0.00 0.00 0.00 67 1016.5
20240221213102 74 139 2.6 18.2 0.00 0.00 0.00 67 1016.7
20240221211600 74 162 7.8 22.6 0.00 0.00 0.00 67 1017.0
20240221210134 74 176 0.9 15.6 0.00 0.00 0.00 68 1017.3
20240221204552 75 181 5.2 17.4 0.00 0.00 0.00 66 1017.4
20240221203057 75 151 2.6 13.9 0.00 0.00 0.00 66 1017.7
20240221201546 75 154 2.6 15.6 0.00 0.00 0.00 67 1018.0
20240221200044 75 152 4.3 17.4 0.00 0.00 0.00 66 1018.2
20240221194543 74 180 3.5 17.4 0.00 0.00 0.00 67 1018.5
20240221193049 75 168 9.6 21.7 0.00 0.00 0.00 67 1018.9
20240221191538 75 183 0.9 15.6 0.00 0.00 0.00 68 1019.1
20240221190036 75 212 0.0 15.6 0.00 0.00 0.00 68 1019.5
20240221184533 75 130 1.7 16.5 0.00 0.00 0.00 67 1019.7
20240221183037 75 169 1.7 15.6 0.00 0.00 0.00 67 1020.1
20240221181530 75 149 3.5 14.8 0.00 0.00 0.00 67 1020.4
20240221180024 74 171 1.7 13.0 0.00 0.00 0.00 68 1020.7
20240221174521 74 168 3.5 16.5 0.00 0.00 0.00 68 1020.9
20240221173019 73 143 2.6 16.5 0.00 0.00 0.00 70 1021.0
20240221171518 73 176 4.3 17.4 0.00 0.00 0.00 69 1021.1
20240221170029 72 173 7.8 19.1 0.00 0.00 0.00 70 1021.3
20240221164513 72 181 7.0 18.2 0.00 0.00 0.00 71 1021.2
20240221163013 72 214 7.8 20.9 0.00 0.00 0.00 71 1021.3
20240221161522 71 167 6.1 17.4 0.00 0.00 0.00 73 1021.4
20240221160007 70 154 1.7 16.5 0.00 0.00 0.00 74 1021.5
20240221154505 70 204 4.3 13.0 0.00 0.00 0.00 76 1021.6
20240221153002 69 176 0.0 9.6 0.00 0.00 0.00 78 1021.6
20240221151600 68 127 1.7 9.6 0.00 0.00 0.00 80 1021.7
20240221150056 67 164 0.0 8.7 0.00 0.00 0.00 82 1021.7
20240221144551 66 169 0.0 3.5 0.00 0.00 0.00 85 1021.7
20240221143051 64 174 0.0 1.7 0.00 0.00 0.00 89 1021.6
20240221141552 63 151 0.0 0.9 0.00 0.00 0.00 91 1021.6
20240221140042 62 159 0.0 0.0 0.00 0.00 0.00 92 1021.5
20240221134538 61 177 0.0 0.0 0.00 0.00 0.00 93 1021.4
20240221133036 61 151 0.0 0.0 0.00 0.00 0.00 93 1021.4
20240221131544 60 160 0.0 0.0 0.00 0.00 0.00 93 1021.3
20240221130032 60 146 0.0 0.0 0.00 0.00 0.00 93 1021.3
20240221124538 60 162 0.0 0.0 0.00 0.00 0.00 93 1021.2
20240221123031 60 168 0.0 0.0 0.00 0.00 0.00 93 1021.2
20240221121529 60 148 0.0 0.0 0.00 0.00 0.00 93 1021.2
20240221120030 60 155 0.0 0.0 0.00 0.00 0.00 93 1021.1
20240221114528 60 190 0.0 0.0 0.00 0.00 0.00 93 1021.0
20240221113028 60 173 0.0 0.0 0.00 0.00 0.00 94 1020.9